Temp
14 14 13 15 18 19 18 17 17 16 16 15 15 15 15 15 15 16 17 17 16 16 15 15 14 15 14 14 13 12 12 11
13 13 12 13 15 17 18 17 17 16 16 15 15 15 15 15 15 15 15 17 17 16 15 15 14 14 14 13 12 12 9 9
12 12 13 13 13 15 15 17 17 17 17 16 16 16 15 15 15 15 15 16 17 17 16 14 14 13 13 12 13 9 9 9
11 11 11 12 12 12 16 18 17 17 17 16 16 16 16 15 15 15 15 14 15 16 16 15 14 14 14 13 13 11 9 8
10 10 10 11 12 13 13 14 16 16 15 16 16 16 16 16 15 15 14 14 14 14 15 15 13 14 12 12 13 11 10 8
9 9 11 11 12 12 13 14 15 16 17 16 16 16 16 16 15 15 14 13 13 14 13 13 13 13 12 11 9 10 10 9
10 12 12 12 12 12 12 13 13 13 14 15 15 13 15 15 14 14 13 13 12 12 12 12 12 11 11 12 12 11 11 10
10 10 10 11 11 11 12 12 13 12 13 12 13 13 12 11 12 12 12 12 11 11 11 10 9 10 10 11 11 10 10 10
11 11 11 12 12 11 12 12 11 12 12 11 12 12 12 11 11 11 10 10 10 10 10 9 8 8 8 9 9 9 9 9
11 11 11 11 12 12 11 11 11 12 11 11 11 11 11 11 10 10 10 10 10 11 10 9 9 7 6 7 8 7 7 9
11 11 11 11 11 12 12 11 12 12 12 12 11 11 11 10 10 10 10 9 9 9 8 8 7 7 7 7 6 7 7 8
10 11 11 11 11 12 13 12 12 12 12 12 12 12 11 11 10 9 9 9 8 8 7 7 6 7 6 6 5 5 6 6
11 11 10 10 11 13 12 12 12 12 12 12 12 12 12 11 11 11 10 10 8 7 7 6 7 6 6 6 5 5 6 5
11 9 8 9 10 11 12 13 12 12 12 11 11 11 11 10 10 10 10 8 8 8 7 6 6 6 6 5 5 5 5 6
9 8 9 10 11 11 11 12 12 12 13 11 11 11 11 11 11 11 9 9 7 7 7 7 6 6 5 5 5 4 4 3
9 9 8 9 10 11 12 12 11 11 11 11 12 12 11 11 11 10 8 8 8 7 7 6 6 5 4 4 4 3 3 3
9 8 8 8 9 10 11 11 12 11 11 11 11 11 12 11 11 10 9 8 8 7 6 6 5 4 4 4 4 3 3 3
9 8 8 9 10 11 11 11 11 11 11 11 11 11 10 12 11 10 8 7 7 6 6 5 5 4 4 3 4 3 2 2
9 8 9 10 11 11 11 11 11 10 10 10 11 10 10 10 10 10 8 6 6 6 5 5 4 4 3 2 3 3 1 1
Height
746 740 734 726 726 729 733 731 736 741 745 748 750 752 750 754 752 753 757 764 770 772 773 779 786 786 790 792 807 811 814 821
748 741 737 729 726 729 730 732 731 732 734 736 738 738 746 747 749 750 751 754 757 765 768 772 782 784 777 792 798 807 812 817
750 745 740 736 733 731 730 729 728 729 728 729 730 734 734 736 738 739 741 743 746 748 755 763 766 776 776 781 784 799 803 809
753 749 745 741 737 734 731 729 728 727 725 725 728 728 727 727 728 729 729 732 735 737 741 746 754 763 763 769 764 783 789 799
755 752 748 744 741 737 734 730 725 723 723 720 719 719 717 714 716 720 720 721 724 729 730 733 740 746 749 759 755 767 775 782
757 752 749 746 742 739 736 732 729 724 719 716 714 711 710 711 709 709 711 713 714 715 720 721 724 728 738 747 750 757 769 773
753 748 747 745 742 740 737 735 730 725 721 715 709 711 703 700 700 698 700 703 708 707 707 710 708 713 717 727 739 744 751 763
749 747 744 742 740 738 735 732 729 724 720 717 712 706 710 709 700 699 696 693 695 698 695 699 702 693 701 704 716 729 737 746
749 745 742 741 738 736 734 732 728 724 719 716 714 709 703 703 690 706 698 700 697 701 695 699 708 705 684 705 713 716 732 738
748 743 739 738 736 733 732 730 727 724 719 716 713 707 705 704 698 691 700 701 698 692 695 699 698 717 707 700 707 724 731 737
745 741 736 734 733 730 728 727 723 720 718 715 712 707 702 699 697 700 695 697 699 700 694 690 695 700 704 708 715 724 733 740
742 737 733 731 727 726 723 720 718 716 715 713 712 708 704 701 699 701 698 694 694 701 692 697 697 697 702 712 723 723 727 732
739 737 731 727 723 720 719 716 714 711 710 709 709 706 702 699 698 697 699 693 694 695 696 698 688 697 704 713 720 727 729 733
736 732 732 727 723 720 717 715 712 710 707 706 705 703 702 699 698 696 700 694 694 696 697 691 693 693 707 714 719 726 731 734
739 736 732 727 724 723 718 714 713 711 708 704 702 699 697 693 691 690 690 691 691 696 695 694 695 697 704 711 715 722 730 736
737 734 731 728 725 720 718 714 713 711 707 704 700 695 693 691 689 686 688 687 690 695 693 692 694 698 702 707 712 718 726 735
735 732 729 725 723 719 715 712 710 708 705 702 699 693 690 687 686 685 684 684 687 691 691 689 695 698 701 706 710 715 725 731
732 730 725 721 718 715 713 710 707 704 701 698 696 692 688 684 682 682 682 683 684 688 687 688 692 698 703 704 710 716 722 728
728 724 721 718 715 712 708 706 703 700 697 693 690 687 685 684 680 678 678 682 682 683 686 686 690 695 701 704 706 714 720 726
Wind_Speed
20 24 28 23 17 30 30 33 34 34 33 33 34 34 36 37 43 49 47 45 42 40 37 38 36 37 34 34 31 28 31 30
18 24 27 32 24 15 29 27 32 33 35 35 36 38 30 33 35 40 47 50 48 44 43 38 36 40 40 36 33 32 28 31
13 18 26 27 24 19 17 17 28 31 34 35 37 34 31 34 36 41 50 52 53 51 49 46 48 47 44 43 40 34 25 38
10 15 21 25 26 25 16 17 18 27 32 30 28 27 27 29 36 40 47 51 54 55 54 54 50 49 49 51 51 46 29 39
5 7 10 17 18 21 20 19 10 9 17 27 30 29 30 36 35 35 38 45 51 53 54 57 55 54 48 53 54 50 38 38
8 8 12 15 20 21 21 20 25 21 13 13 28 31 34 33 32 32 37 40 49 56 54 54 56 56 52 46 42 41 39 38
8 12 10 14 16 16 18 21 21 23 21 14 12 27 26 29 27 31 32 35 38 48 54 55 58 52 52 56 56 55 50 41
8 8 9 13 12 14 17 17 18 18 20 20 18 18 22 24 20 19 25 29 32 38 44 46 46 58 54 54 56 52 50 44
9 8 11 12 13 11 12 13 16 14 14 13 14 15 14 14 16 15 13 11 15 20 21 22 28 33 35 35 39 41 42 40
10 11 17 17 14 13 13 14 15 17 15 14 14 13 17 15 9 10 13 14 14 15 15 25 20 16 25 27 31 23 28 37
13 12 17 20 18 16 15 17 19 19 13 12 10 8 9 11 13 9 8 11 18 17 14 16 23 24 23 23 27 31 32 30
10 12 19 20 18 15 18 19 21 23 18 13 11 11 9 7 6 4 6 4 11 16 10 20 18 20 22 25 28 31 34 34
11 12 15 18 12 13 18 19 20 22 22 20 20 16 12 10 8 4 7 3 5 10 14 16 16 19 19 22 27 30 32 30
11 8 6 11 10 10 13 17 20 18 17 22 25 23 20 16 14 12 14 10 8 10 13 13 20 23 27 29 30 29 29 28
6 7 7 10 7 11 12 12 13 14 13 17 23 26 25 23 22 17 16 15 14 17 16 16 19 24 29 32 31 29 27 27
7 6 6 10 12 14 17 15 14 14 13 11 12 14 15 17 17 14 13 13 17 21 18 19 20 25 30 31 29 30 28 24
7 7 7 9 15 19 19 16 19 18 18 18 15 10 11 11 13 13 11 12 16 19 20 20 24 26 29 33 34 31 28 25
7 8 8 14 20 24 22 23 24 21 21 21 17 13 13 14 12 12 11 15 15 20 21 23 25 27 29 34 32 30 29 28
12 8 15 22 25 27 27 25 27 27 26 24 21 19 17 15 15 15 14 13 18 22 24 23 25 27 28 33 31 28 29 29
Wind_Direction
356 0 8 9 246 230 230 218 219 220 217 220 224 224 222 216 217 220 219 218 223 221 218 214 209 198 191 189 195 189 184 176
5 9 15 23 31 244 227 224 224 212 211 210 218 220 224 221 219 220 223 221 218 223 223 212 214 206 192 193 189 189 176 175
5 14 23 27 24 7 1 270 230 222 219 225 224 225 224 222 219 221 225 223 221 217 219 215 209 206 200 194 189 179 175 179
353 359 8 19 17 15 359 310 303 249 234 228 231 231 225 217 221 220 223 220 221 218 219 216 213 210 202 202 190 188 172 179
323 337 351 17 21 23 12 8 347 307 323 242 225 225 224 226 225 224 219 217 219 221 218 216 213 207 201 202 194 191 181 179
302 315 350 5 13 18 18 22 17 6 324 306 248 234 237 237 229 224 220 220 218 221 218 214 209 205 204 199 190 186 190 182
310 324 338 350 354 2 4 0 6 15 7 351 15 359 263 234 229 217 215 218 218 217 217 214 209 204 199 204 202 194 192 193
316 327 340 343 344 346 347 345 346 0 1 6 15 22 354 351 346 256 230 213 213 217 216 213 217 203 200 195 194 193 191 190
327 324 321 324 331 337 339 333 330 344 353 11 8 7 13 3 1 320 335 294 235 236 225 245 240 215 196 189 189 185 194 188
317 314 311 315 316 303 308 317 317 330 341 348 347 9 23 13 353 350 310 286 282 265 234 224 225 232 196 191 198 198 190 193
314 310 305 310 315 312 298 289 294 307 320 343 342 335 346 9 15 9 0 315 298 283 242 225 199 201 210 196 203 193 194 182
298 297 301 306 316 315 322 304 292 288 288 300 299 311 317 315 323 329 339 329 255 243 231 215 198 188 193 193 198 189 182 174
299 304 305 312 314 353 351 338 310 294 284 277 283 283 299 300 295 293 261 195 266 233 215 206 180 186 189 192 182 176 173 172
306 315 316 318 317 334 344 355 350 326 302 280 282 278 281 286 289 277 265 258 235 233 229 207 192 185 190 190 188 184 178 182
323 329 325 336 332 325 336 338 333 338 326 299 285 281 280 277 285 280 275 259 243 237 231 218 206 194 193 188 186 190 194 196
290 296 313 321 332 335 328 326 326 325 323 302 296 300 286 278 287 291 282 256 249 244 231 224 220 209 195 196 194 190 188 193
292 300 302 307 315 319 327 321 323 319 312 304 301 305 310 314 312 300 280 257 240 237 226 216 211 204 205 207 198 192 194 191
283 276 277 289 302 309 304 312 318 316 312 304 291 296 308 315 322 311 282 249 232 233 224 216 213 213 208 199 201 192 187 184
284 269 280 294 297 298 302 311 315 314 309 301 290 287 292 296 303 300 293 253 226 219 218 216 211 211 202 192 196 190 183 180